カタログに戻る

STARLINK-34088

運用中通信VLEO
NORAD 64025·PAYLOAD·🇺🇸 United States

打ち上げ May 16, 2025 から Vandenberg Space Force Base

Loading…

次のパス (今後24時間)

TLE

最新Source: CelesTrak SupGP

元期: Sep 15, 2026, 02:49 UTC

1 64025C 25102D   26258.11784722  .00089857  00000+0  31250-2 0  2589
2 64025  70.0009 355.1254 0003487 270.3934 303.4805 15.29541242    19

AllMySatでSTARLINK-34088をリアルタイム追跡

Download on the App Store